Flag for Canada Weather past 2 weeks in Saint-Jérôme, Quebec, Canada

Now
41 °F

Passing clouds.


Feels Like: 39 °F
Forecast: 39 / 47 °F
Wind: 3 mph from Northeast

Location: Montreal / Mirabel

Current Time: Oct 20, 2014 at 9:31:30 PM

Latest Report: Oct 20, 2014 at 9:00 PM


Visibility: 25 mi

Pressure: 29.96 "Hg

Humidity: 70%

Dew point: 32 °F

Location of Saint-JérômeLocation

Historic Weather in Saint-Jérôme — Graph

°F

Saint-Jérôme temperature yesterday

Maximum temperature yesterday: 45 °F (at 12:00 PM)
Minimum temperature yesterday: 37 °F (at 7:00 AM)
Average temperature yesterday: 41 °F

Past Weeks' High & Low Weather Summary

 TemperatureHumidityPressure
High73 °F (Oct 14, 1:00 PM)100% (Oct 7, 9:00 PM)30.31 "Hg (Oct 7, 9:00 PM)
Low30 °F (Oct 11, 7:00 AM)42% (Oct 19, 6:00 PM)29.46 "Hg (Oct 18, 5:00 AM)
Average51 °F80%29.89 "Hg
* Reported Oct 5 8:00 PM — Oct 20 8:00 PM, Saint-Jérôme, Weather by CustomWeather, © 2014

Note: Actual official high and low records may vary slightly from our data, if they occured in-between our weather recording intervals... More about our weather records

Advertising

Saint-Jérôme weather history for previous 24 hours

 ConditionsComfort  
Time TempWeatherWind HumidityBarometerVisibility
8:00 PM
Oct 20
41 °FPassing clouds.2 mph70%29.96 "Hg25 mi
7:00 PM41 °FMostly cloudy.No wind76%29.96 "Hg25 mi
6:00 PM41 °FOvercast.3 mph70%29.95 "Hg25 mi
5:00 PM41 °FMostly cloudy.3 mph66%29.94 "Hg45 mi
4:00 PM41 °FMostly cloudy.No wind57%29.94 "Hg45 mi
3:00 PM41 °FOvercast.3 mph61%29.94 "Hg45 mi
2:00 PM43 °FOvercast.5 mph57%29.94 "Hg45 mi
1:00 PM41 °FOvercast.7 mph61%29.96 "Hg45 mi
12:00 PM41 °FPartly sunny.7 mph57%29.98 "Hg45 mi
11:00 AM41 °FBroken clouds.7 mph61%29.99 "Hg45 mi
10:00 AM39 °FBroken clouds.7 mph56%30.00 "Hg45 mi
9:00 AM36 °FPartly sunny.5 mph81%30.00 "Hg45 mi
8:00 AM32 °FPartly cloudy.2 mph87%30.00 "Hg45 mi
7:00 AM34 °FPassing clouds.3 mph81%29.99 "Hg45 mi
6:00 AM34 °FPassing clouds.2 mph70%29.99 "Hg25 mi
5:00 AM34 °FPassing clouds.3 mph65%29.99 "Hg25 mi
4:00 AM36 °FPassing clouds.5 mph60%29.99 "Hg25 mi
3:00 AM36 °FPassing clouds.6 mph65%29.99 "Hg25 mi
2:00 AM37 °FPassing clouds.5 mph60%29.99 "Hg25 mi
1:00 AM37 °FPassing clouds.3 mph60%29.99 "Hg25 mi
11:00 PM
Oct 19
39 °FPassing clouds.6 mph52%29.99 "Hg25 mi
10:00 PM39 °FPassing clouds.5 mph52%30.00 "Hg25 mi
9:00 PM39 °FPassing clouds.8 mph48%30.00 "Hg25 mi
Weather by CustomWeather, © 2014

See weather overviewHow to use our weather pages